www.pogodaiklimat.ru

Погода и климат >> Архив погоды >> Киргизия >> Бишкек


АРХИВ ПОГОДЫ в Бишкеке

Время (UTC), дата Ветер
(напр.,м/с)
 
Видим.   Явления Облачность Т
(С)
Тd
(С)
f
(%)
Тe
(С)
Тes
(С)
Комфортность P
(гПа)
Po
(гПа)
Тmin
(С)
Tmax
(С)
R
(мм)
R24
(мм)
S
(см)
15 16.09 ЮЗ 2 н/о 10/4 600 м
[Cb cap Ac trans]
+18.8 +7.4 47 +20 +20 по сезону 1019.5 934.3 +22.6
18 16.09 ЮЗ 2 н/о 10/3 600 м
[Sc Ac trans]
+17.5 +7.8 53 +18 +18 тепло 1020.5 934.9 +22.6
21 16.09 штиль 0 н/о 8/0
[Ac trans]
+15.4 +7.1 58 +15 +15 по сезону 1021.6 935.3
00 17.09 ЮЗ 1 н/о 4/0
[Ac trans Ci fib]
+13.8 +6.8 63 +14 +14 тепло 1023.0 936.1
03 17.09 ЮВ 1 20 км 3/0
[Ac trans]
+17.7 +5.6 45 +19 +22 тепло 1023.1 937.2 +12.9
06 17.09 СВ 1 20 км 1/1 1000 м
[Cu hum]
+21.9 +3.4 30 +22 +34 комфорт 1021.8 937.2
09 17.09 С 3 20 км 3/3 1000 м
[Cu hum]
+23.5 +1.7 24 +23 +28 комфорт 1020.0 935.9
12 17.09 СВ 1 20 км ясно +23.6 +1.5 23 +23 +24 комфорт 1019.2 935.3
15 17.09 Ю 1 н/о ясно +17.6 +5.1 44 +19 +19 по сезону 1020.9 935.2 +24.7
18 17.09 штиль 0 н/о ясно +14.8 +6.1 56 +15 +15 по сезону 1020.6 934.2 +24.7
21 17.09 штиль 0 н/о ясно +13.3 +4.3 54 +13 +13 по сезону 1018.9 932.1
00 18.09 штиль 0 н/о ясно +12.6 +4.8 59 +12 +12 по сезону 1017.9 931.1
03 18.09 штиль 0 20 км ясно +17.2 +5.1 45 +17 +21 по сезону 1016.2 930.8 +8.3
06 18.09 С 2 20 км ясно +26.2 +7.1 30 +26 +37 жарко 1012.1 929.4
09 18.09 З 1 20 км ясно +28.6 +4.5 22 +27 +38 жарко 1009.8 927.9
12 18.09 СЗ 1 20 км ясно +27.6 +6.4 26 +27 +28 жарко 1010.0 927.9
15 18.09 ЮЗ 1 н/о ясно +20.6 +6.8 41 +23 +23 комфорт 1012.5 928.4 +29.6
18 18.09 Ю 1 н/о 10/0
[Ci fib]
+20.4 +4.3 35 +22 +22 комфорт 1019.2 928.9 +29.6
21 18.09 ЮЗ 1 н/о 8/0
[Ci fib]
+16.3 +4.6 46 +17 +17 тепло 1015.6 930.0
00 19.09 Ю 1 н/о 6/0
[Ac trans Ci fib]
+15.5 +2.9 43 +16 +16 тепло 1017.6 931.5
03 19.09 ЮЗ 1 20 км 3/0
[Ac trans]
+18.9 +3.0 35 +20 +23 тепло 1017.8 932.7 +13.9
06 19.09 СВ 1 20 км 6/0
[Ac trans Ci fib]
+28.0 +3.6 21 +26 +36 жарко 1015.2 932.7
09 19.09 ЮВ 1 20 км 8/3 600 м
[Cb cap Ac trans Ci fib]
+28.8 +3.0 19 +27 +32 жарко 1013.9 931.7
12 19.09 СВ 1 20 км 8/0
[Ac trans Ci fib]
+28.7 +3.6 20 +27 +28 жарко 1014.1 931.9
15 19.09 ЮВ 1 н/о ясно +21.9 +7.7 40 +23 +23 комфорт 1016.7 932.6 +30.6
18 19.09 Ю 1 н/о ясно +20.5 +7.7 44 +23 +23 комфорт 1016.0 931.6 +30.6
21 19.09 штиль 0 н/о н/о +19.0 +7.4 47 +19 +19 тепло 1015.8 930.9
00 20.09 штиль 0 н/о ясно +17.5 +6.7 49 +18 +18 тепло 1017.6 932.2
03 20.09 штиль 0 20 км ясно +21.1 +5.5 36 +22 +25 комфорт 1017.8 933.3 +14.0
06 20.09 СЗ 1 20 км ясно +25.6 +3.6 24 +25 +37 комфорт 1016.4 933.2
09 20.09 СЗ 2 20 км ясно +27.9 +5.0 23 +27 +35 жарко 1014.3 931.9
12 20.09 СЗ 1 20 км 1/0
[Ac trans]
+27.8 +2.9 20 +26 +27 жарко 1014.1 931.6
15 20.09 Ю 2 н/о ясно +21.5 +8.0 42 +23 +23 комфорт 1016.2 932.1 +29.4
18 20.09 Ю 1 н/о 3/0
[Ci fib]
+19.3 +7.1 45 +21 +21 комфорт 1016.1 931.3 +29.4
21 20.09 штиль 0 н/о 3/0
[Ci fib]
+17.6 +7.0 50 +18 +18 тепло 1014.9 929.7
00 21.09 Ю 1 н/о ясно +13.5 +7.1 65 +14 +14 тепло 1015.3 929.0
03 21.09 штиль 0 20 км ясно +20.4 +7.6 44 +21 +25 комфорт 1013.3 929.0 +12.7
06 21.09 З 1 20 км ясно +26.6 +9.1 33 +27 +39 жарко 1010.4 928.1
09 21.09 СЗ 1 20 км ясно +29.8 +6.7 23 +29 +39 жарко 1008.2 926.8
12 21.09 СЗ 1 20 км ясно +30.6 +8.4 25 +30 +31 жарко 1007.4 926.3
15 21.09 Ю 1 н/о ясно +23.2 +9.2 41 +25 +25 комфорт 1009.7 926.5 +31.7
18 21.09 Ю 1 н/о ясно +21.6 +5.6 35 +22 +22 комфорт 1009.5 925.8 +31.7
21 21.09 штиль 0 н/о ясно +19.2 +5.6 41 +20 +20 тепло 1008.9 924.6
00 22.09 Ю 1 н/о ясно +17.6 +2.5 36 +19 +19 тепло 1008.6 923.9
03 22.09 штиль 0 20 км ясно +22.5 +5.6 33 +23 +26 комфорт 1008.6 925.3 +15.7
06 22.09 СЗ 1 20 км ясно +30.4 +6.8 23 +29 +41 жарко 1006.4 925.4
09 22.09 С 1 20 км ясно +32.7 +6.7 20 +31 +41 жарко 1004.7 924.4
12 22.09 СЗ 1 20 км ясно +31.7 +7.6 22 +30 +31 жарко 1004.6 924.0
15 22.09 ЮВ 1 н/о ясно +24.1 +7.1 34 +24 +24 комфорт 1007.5 924.7 +34.1
18 22.09 Ю 1 н/о ясно +24.4 +7.3 33 +25 +25 комфорт 1008.8 925.9 +34.1
21 22.09 штиль 0 н/о ясно +21.5 +7.4 40 +22 +22 комфорт 1009.6 925.9
00 23.09 З 9 н/о 6/0
[Ci fib]
+17.1 +7.6 54 +16 +16 тепло 1020.1 934.4
03 23.09 СЗ 1
{17}
20 км 6/0
[Ac trans Ci fib]
+15.3 +9.0 66 +16 +18 по сезону 1025.9 939.2 +14.8
06 23.09 С 4 20 км 8/0
[Ac trans]
+18.5 +9.2 55 +19 +22 по сезону 1023.1 937.5
09 23.09 З 2 10 км 10/6 600 м
[Cb cap Ac trans]
+18.9 +8.2 50 +20 +21 по сезону 1022.5 937.1
12 23.09 З 1 20 км 8/0
[Ac trans]
+17.4 +7.6 53 +18 +19 прохладно 1022.2 936.4

 

Местоположение метеостанции Бишкек (город Бишкек, Киргизия): широта 42.85 долгота 74.53 высота над уровнем моря 760 м.

В архиве по умолчанию представлена погода в Бишкеке за последнюю неделю. Архивные данные за месяц целиком и за предыдущие месяцы, начиная с января 2011 года, Вы можете получить, выбрав интересующий диапазон дат из раскрывающегося списка и нажав кнопку "Ввод!".


*Определитесь, кто Вы:
робот инопланетянин человек

Внимание! Время в таблицах - всемирное. Для получения местного времени необходимо прибавить поправку, которая равна 6 ч.

Смотрите также архив погоды в соседних городах и на ближайших метеорологических станциях:

Погода в Байтике (Чуйская область, Киргизия) (22 км)
Погода в Иссык-Ате (город Бишкек, Киргизия) (28 км)
Погода в Яны-Жере (Чуйская область, Киргизия) (46 км)
Погода в Бериктасе (Жамбылская область, Казахстан) (49 км)
Погода в Кара-Балте (Чуйская область, Киргизия) (58 км)
Погода в Тео-Ашуу (Чуйская область, Киргизия) (58 км)
Погода в Токмоке (Чуйская область, Киргизия) (61 км)
Погода в Кордае (Жамбылская область, Казахстан) (66 км)
Погода в Сусамыре (Чуйская область, Киргизия) (90 км)
Погода в Отаре (Жамбылская область, Казахстан) (96 км)

Пояснения к столбцам:

Ветер - указаны скорость ветра в м/с - средняя за 10 мин, порывы в срок и между сроками (в фигурных скобках) и направление, откуда дует ветер: С - северный, СВ - северо-восточный, В - восточный, ЮВ - юго-восточный, Ю - южный, ЮЗ - юго-западный, З - западный, СЗ - северо-западный.
Видимость - горизонтальная дальность видимости в метрах или километрах. При видимости от 1 до 10 км при отсутствии осадков обычно наблюдается дымка, при ухудшении видимости до 1 км и менее - туман. В сухую погоду видимость может ухудшаться дымом, пылью или мглою.
Явления - указаны атмосферные явления, наблюдавшиеся в срок или в последний час перед сроком; фигурными скобками обозначены явления, наблюдавшиеся между сроками (за 1-3 часа до срока); квадратными скобками обозначены град или гололедные отложения с указанием их диаметра в мм.
Облачность - указаны через наклонную черту общая и нижняя облачность в баллах и высота нижней границы облаков в метрах; квадратными скобками обозначены формы облаков: Ci - перистые, Cs - перисто-слоистые, Cc - перисто-кучевые, Ac - высококучевые, As - высокослоистые, Sc - слоисто-кучевые, Ns - слоисто-дождевые, Cu - кучевые, Cb - кучево-дождевые. Подробнее классификацию облаков см. в Атласе облаков (PDF).
T - Температура воздуха - температура, измеренная на высоте 2 м над землей.
Td - Температура точки росы - температура, при понижении до которой содержащийся в воздухе водяной пар достигнет насыщения.
f - Относительная влажность воздуха - влажноcть воздуха, измеренная на высоте 2 м над землей.
Te - Эффективная температура - температура, которую ощущает одетый по сезону человек в тени. Характеристика душности погоды. При расчете учитывается влияние влажности воздуха и скорости ветра на теплоощущения человека.
Tes - Эффективная температура на солнце - температура, которую ощущает человек, с поправкой на солнечный нагрев. Характеристика знойности погоды. Зависит от высоты солнца над горизонтом, облачности и скорости ветра. Ночью, в пасмурную погоду, а также при ветре 12 м/с и более поправка равна нулю.
P - Атмосферное давление - приведенное к уровню моря атмосферное давление.
Po - Атмосферное давление - измеренное на уровне метеостанции атмосферное давление.
Tmin - Минимальная температура - минимум температуры воздуха на высоте 2 м над землей.
Tmax - Максимальная температура - максимум температуры воздуха на высоте 2 м над землей.
R - Количество осадков - Количество выпавших осадков за период времени, мм. При наведении курсора мыши на число - период времени, за который выпало указанное количество осадков.
R24 - Количество осадков - Количество выпавших осадков за 24 часа, мм.
S - Снежный покров - Высота снежного покрова, см. При наведении курсора мыши на число - состояние снежного покрова и степень покрытия местности в баллах.